This is the latest recevied weather packets stored in our database for station/object N1IJV-10. If no packets are shown the sender has not sent any weather packets the latest 10 day(s).
| Time | Temp. | Humidity | Pressure | Rain* | Wind** | Luminosity | Snow |
|---|---|---|---|---|---|---|---|
| 1777889595 | 8.33° C | 88% | 1003.8 hPa | 0 mm | - | 0 W/m² | - |
| 1777889292 | 8.89° C | 87% | 1003.8 hPa | 0 mm | - | 0 W/m² | - |
| 1777888989 | 8.89° C | 87% | 1003.9 hPa | 0 mm | - | 0 W/m² | - |
| 1777888687 | 8.89° C | 87% | 1003.8 hPa | 0 mm | - | 0 W/m² | - |
| 1777888382 | 8.89° C | 86% | 1003.7 hPa | 0 mm | - | 0 W/m² | - |
| 1777888079 | 8.89° C | 85% | 1003.7 hPa | 0 mm | - | 0 W/m² | - |
| 1777887776 | 8.89° C | 85% | 1003.7 hPa | 0 mm | - | 0 W/m² | - |
| 1777887473 | 8.89° C | 86% | 1003.9 hPa | 0 mm | - | 0 W/m² | - |
| 1777887168 | 8.89° C | 86% | 1004.1 hPa | 0 mm | - | 0 W/m² | - |
| 1777886865 | 8.89° C | 85% | 1003.8 hPa | 0 mm | - | 0 W/m² | - |
| 1777886560 | 9.44° C | 85% | 1004 hPa | 0 mm | - | 0 W/m² | - |
| 1777886259 | 8.89° C | 85% | 1003.8 hPa | 0 mm | - | 0 W/m² | - |
| 1777885956 | 8.89° C | 86% | 1003.9 hPa | 0 mm | - | 0 W/m² | - |
| 1777885655 | 8.89° C | 85% | 1003.9 hPa | 0 mm | - | 0 W/m² | - |
| 1777885352 | 8.89° C | 86% | 1003.6 hPa | 0 mm | - | 0 W/m² | - |
| 1777885052 | 8.89° C | 87% | 1003.9 hPa | 0 mm | - | 0 W/m² | - |
| 1777884746 | 8.89° C | 85% | 1003.8 hPa | 0 mm | - | 0 W/m² | - |
| 1777884442 | 9.44° C | 84% | 1003.6 hPa | 0 mm | - | 0 W/m² | - |
| 1777884141 | 9.44° C | 84% | 1003.6 hPa | 0 mm | - | 0 W/m² | - |
| 1777883837 | 10° C | 83% | 1003.5 hPa | 0 mm | - | 0 W/m² | - |
| 1777883534 | 10° C | 83% | 1003.5 hPa | 0 mm | - | 0 W/m² | - |
| 1777883230 | 9.44° C | 84% | 1003.7 hPa | 0 mm | - | 0 W/m² | - |
| 1777882926 | 9.44° C | 85% | 1003.7 hPa | 0 mm | - | 0 W/m² | - |
| 1777882623 | 8.89° C | 88% | 1003.7 hPa | 0 mm | - | 0 W/m² | - |
| 1777882319 | 8.33° C | 90% | 1003.5 hPa | 0 mm | - | 0 W/m² | - |
* Rain latest hour (hover to see other rain measurements)
** Current wind speed in m/s (hover to see current wind gust speed)